Location: Unspecified
(0.0000°N, 0.0000°E)
Time: 13:38:35
(UTC+00:00)

Courier 1B Rocket - Pass Details

Date: 26 November 2019
Orbit: 920 x 1202 km, 28.2° (Epoch: 08 December)

Event Time Altitude Azimuth Distance (km) Brightness Sun altitude
Rises 16:49:07 0° 328° (NNW) 3,844 8.3 13.6°
Reaches altitude 10° 16:53:12 10° 350° (N) 2,951 7.4 12.6°
Maximum altitude 16:57:15 15° 24° (NNE) 2,616 6.9 11.7°
Drops below altitude 10° 17:01:25 10° 58° (ENE) 3,056 7.0 10.7°
Sets 17:05:44 0° 79° (E) 4,059 7.6 9.7°
